SAS0377 ENGM-ENTC

Flight info

Callsign SAS0377
Flight time N/A
Altitude 37000
Route RIBBE DCT GIGNI DCT SOMUB DCT PENNO DCT ATWEG
Aircraft A320/M-SDE3FGHIJ1RWXYZ/ALB1

Departure

Time 2026-05-05 12:01
Airport Oslo-Gardermoen International Airport (ENGM)

Arrival

Time N/A
Airport Tromsø Airport (ENTC)
Time Latitude Longitude Altitude Speed Heading
2026-05-05 11:29 60.19550 11.09500 685 ft 0 kts 196°
2026-05-05 11:51 60.19552 11.09502 679 ft 2 kts 196°
2026-05-05 11:52 60.19577 11.09516 681 ft 4 kts 196°
2026-05-05 11:52 60.19598 11.09528 677 ft 1 kts 196°
2026-05-05 11:52 60.19599 11.09528 677 ft 0 kts 196°
2026-05-05 11:54 60.19598 11.09527 685 ft 0 kts 199°
2026-05-05 11:54 60.19597 11.09526 685 ft 1 kts 202°
2026-05-05 11:54 60.19594 11.09490 681 ft 4 kts 287°
2026-05-05 11:55 60.19625 11.09454 685 ft 5 kts 335°
2026-05-05 11:55 60.19666 11.09414 681 ft 8 kts 328°
2026-05-05 11:55 60.19694 11.09308 683 ft 10 kts 287°
2026-05-05 11:55 60.19716 11.09163 682 ft 12 kts 286°
2026-05-05 11:56 60.19742 11.08984 682 ft 15 kts 286°
2026-05-05 11:56 60.19769 11.08788 675 ft 9 kts 285°
2026-05-05 11:56 60.19767 11.08675 679 ft 8 kts 228°
2026-05-05 11:56 60.19703 11.08629 679 ft 13 kts 197°
2026-05-05 11:57 60.19598 11.08568 676 ft 18 kts 195°
2026-05-05 11:57 60.19470 11.08495 675 ft 21 kts 196°
2026-05-05 11:57 60.19323 11.08410 675 ft 24 kts 195°
2026-05-05 11:57 60.19156 11.08315 673 ft 26 kts 196°
2026-05-05 11:58 60.18974 11.08209 673 ft 28 kts 195°
2026-05-05 11:58 60.18793 11.08107 671 ft 25 kts 196°
2026-05-05 11:58 60.18623 11.08008 670 ft 25 kts 195°
2026-05-05 11:58 60.18460 11.07913 669 ft 19 kts 196°
2026-05-05 11:59 60.18365 11.07855 668 ft 12 kts 206°
2026-05-05 11:59 60.18361 11.07691 664 ft 16 kts 306°
2026-05-05 11:59 60.18459 11.07545 664 ft 18 kts 325°
2026-05-05 11:59 60.18531 11.07439 665 ft 12 kts 323°
2026-05-05 12:00 60.18581 11.07421 664 ft 2 kts 15°
2026-05-05 12:00 60.18581 11.07422 664 ft 0 kts 15°
2026-05-05 12:00 60.18582 11.07422 664 ft 1 kts 15°
2026-05-05 12:00 60.18677 11.07477 667 ft 42 kts 15°
2026-05-05 12:01 60.19181 11.07765 671 ft 105 kts 16°
2026-05-05 12:01 60.20053 11.08269 676 ft 154 kts 16°
2026-05-05 12:01 60.20785 11.08705 746 ft 174 kts 15°
2026-05-05 12:01 60.21938 11.09384 1395 ft 172 kts 13°
2026-05-05 12:02 60.23452 11.10248 2418 ft 169 kts 11°
2026-05-05 12:02 60.24577 11.10886 3069 ft 167 kts 10°
2026-05-05 12:02 60.25701 11.11377 3653 ft 163 kts 357°
2026-05-05 12:02 60.26839 11.11186 4102 ft 171 kts 347°
2026-05-05 12:03 60.27649 11.10928 4271 ft 186 kts 348°
2026-05-05 12:03 60.28991 11.10504 4530 ft 210 kts 348°
2026-05-05 12:03 60.30538 11.10014 4858 ft 235 kts 348°
2026-05-05 12:03 60.32230 11.09480 5389 ft 253 kts 348°
2026-05-05 12:04 60.34008 11.09169 6235 ft 261 kts 360°
2026-05-05 12:04 60.35834 11.09772 6825 ft 271 kts 14°
2026-05-05 12:04 60.38153 11.11718 6996 ft 273 kts 20°
2026-05-05 12:04 60.39326 11.12759 7090 ft 275 kts 20°
2026-05-05 12:05 60.41082 11.14303 7949 ft 276 kts 20°
2026-05-05 12:05 60.42850 11.15851 8846 ft 278 kts 19°
2026-05-05 12:05 60.44615 11.17391 9672 ft 282 kts 20°
2026-05-05 12:05 60.46455 11.18992 10147 ft 298 kts 19°
2026-05-05 12:06 60.48429 11.20702 10436 ft 317 kts 20°
2026-05-05 12:06 60.50489 11.22490 11040 ft 325 kts 20°
2026-05-05 12:06 60.52576 11.24317 11760 ft 329 kts 20°
2026-05-05 12:06 60.54687 11.26173 12523 ft 332 kts 21°
2026-05-05 12:07 60.56815 11.28047 13281 ft 336 kts 20°
2026-05-05 12:07 60.58969 11.29943 13957 ft 339 kts 21°
2026-05-05 12:07 60.61119 11.31841 14579 ft 343 kts 21°
2026-05-05 12:07 60.63322 11.33786 15203 ft 347 kts 20°
2026-05-05 12:08 60.65554 11.35759 15812 ft 351 kts 20°
2026-05-05 12:08 60.67809 11.37764 16418 ft 356 kts 20°
2026-05-05 12:08 60.70088 11.39793 17001 ft 360 kts 19°
2026-05-05 12:08 60.72399 11.41843 17580 ft 364 kts 19°
2026-05-05 12:09 60.74787 11.43567 18168 ft 364 kts
2026-05-05 12:09 60.77273 11.44447 18680 ft 362 kts 359°
2026-05-05 12:09 60.79801 11.44758 19202 ft 366 kts 357°
2026-05-05 12:09 60.82323 11.45054 19727 ft 370 kts 356°
2026-05-05 12:10 60.84907 11.45363 20308 ft 374 kts 356°
2026-05-05 12:10 60.87517 11.45682 20846 ft 378 kts 357°
2026-05-05 12:10 60.90152 11.46011 21353 ft 382 kts 356°
2026-05-05 12:10 60.92820 11.46345 21868 ft 386 kts 356°
2026-05-05 12:11 60.95515 11.46681 22376 ft 390 kts 355°
2026-05-05 12:11 60.98237 11.47016 22888 ft 394 kts 355°
2026-05-05 12:11 61.00980 11.47357 23400 ft 398 kts 355°
2026-05-05 12:11 61.03755 11.47703 23805 ft 401 kts 355°
2026-05-05 12:12 61.06515 11.48052 24193 ft 404 kts 355°
2026-05-05 12:12 61.09329 11.48339 24576 ft 406 kts 353°
2026-05-05 12:12 61.12150 11.48442 24963 ft 407 kts 351°
2026-05-05 12:12 61.14990 11.48425 25331 ft 409 kts 351°
2026-05-05 12:13 61.17852 11.48355 25735 ft 412 kts 350°
2026-05-05 12:13 61.20731 11.48282 26115 ft 415 kts 350°
2026-05-05 12:13 61.23631 11.48231 26488 ft 419 kts 351°
2026-05-05 12:13 61.26553 11.48210 26849 ft 422 kts 351°
2026-05-05 12:14 61.29463 11.48214 27211 ft 425 kts 351°
2026-05-05 12:14 61.32432 11.48231 27581 ft 428 kts 351°
2026-05-05 12:14 61.35430 11.48256 27944 ft 431 kts 351°
2026-05-05 12:14 61.38439 11.48283 28298 ft 434 kts 351°
2026-05-05 12:15 61.41473 11.48302 28651 ft 437 kts 351°
2026-05-05 12:15 61.44524 11.48316 29056 ft 440 kts 352°
2026-05-05 12:15 61.47602 11.48327 29364 ft 444 kts 352°
2026-05-05 12:15 61.50703 11.48336 29684 ft 448 kts 352°
2026-05-05 12:16 61.53825 11.48345 29993 ft 451 kts 352°
2026-05-05 12:16 61.56930 11.48354 30272 ft 454 kts 352°
2026-05-05 12:16 61.60095 11.48367 30561 ft 456 kts 352°
2026-05-05 12:16 61.63280 11.48382 30844 ft 459 kts 352°
2026-05-05 12:17 61.66472 11.48399 31214 ft 458 kts 353°
2026-05-05 12:17 61.69654 11.48419 31604 ft 458 kts 353°
2026-05-05 12:17 61.72845 11.48436 31988 ft 458 kts 353°
2026-05-05 12:17 61.76026 11.48447 32418 ft 457 kts 353°